TimeEST,TemperatureF,Dew PointF,Humidity,Sea Level PressureIn,VisibilityMPH,Wind Direction,Wind SpeedMPH,Gust SpeedMPH,PrecipitationIn,Events,Conditions,WindDirDegrees,DateUTC
12:55 AM,35.1,25.0,67,30.45,10.0,Calm,Calm,-,N/A,,Clear,0,2013-01-10 05:55:00
1:55 AM,28.4,23.0,80,30.49,10.0,Calm,Calm,-,N/A,,Clear,0,2013-01-10 06:55:00
2:55 AM,28.0,23.0,81,30.54,10.0,SE,3.5,-,N/A,,Clear,140,2013-01-10 07:55:00
3:55 AM,28.0,23.0,81,30.53,10.0,Calm,Calm,-,N/A,,Clear,0,2013-01-10 08:55:00
4:55 AM,26.1,21.9,84,30.53,10.0,Calm,Calm,-,N/A,,Clear,0,2013-01-10 09:55:00
5:55 AM,26.1,21.9,84,30.54,10.0,Calm,Calm,-,N/A,,Clear,0,2013-01-10 10:55:00
6:55 AM,26.1,21.9,84,30.54,10.0,Calm,Calm,-,N/A,,Clear,0,2013-01-10 11:55:00
7:55 AM,26.1,21.9,84,30.53,10.0,ESE,4.6,-,N/A,,Clear,110,2013-01-10 12:55:00
8:55 AM,27.0,23.0,85,30.54,10.0,SE,6.9,-,N/A,,Clear,130,2013-01-10 13:55:00
9:55 AM,30.0,26.1,85,30.53,10.0,East,3.5,-,N/A,,Clear,100,2013-01-10 14:55:00
10:55 AM,37.0,28.0,70,30.52,10.0,ESE,9.2,-,N/A,,Clear,120,2013-01-10 15:55:00
11:55 AM,42.1,26.1,53,30.48,10.0,SE,10.4,-,N/A,,Clear,140,2013-01-10 16:55:00
12:55 PM,42.8,24.8,49,30.40,10.0,ESE,10.4,-,N/A,,Clear,110,2013-01-10 17:55:00
1:55 PM,43.0,25.0,49,30.38,10.0,ESE,11.5,-,N/A,,Clear,120,2013-01-10 18:55:00
2:55 PM,44.1,26.1,49,30.35,10.0,ESE,12.7,-,N/A,,Clear,110,2013-01-10 19:55:00
3:55 PM,44.1,27.0,51,30.32,10.0,East,10.4,-,N/A,,Mostly Cloudy,90,2013-01-10 20:55:00
4:55 PM,44.1,26.1,49,30.30,10.0,ESE,11.5,-,N/A,,Mostly Cloudy,110,2013-01-10 21:55:00
5:55 PM,43.0,26.1,51,30.27,10.0,East,11.5,-,N/A,,Overcast,90,2013-01-10 22:55:00
6:55 PM,42.1,25.0,51,30.27,10.0,ESE,11.5,-,N/A,,Overcast,110,2013-01-10 23:55:00
7:55 PM,41.0,25.0,53,30.22,10.0,ESE,16.1,-,N/A,,Mostly Cloudy,110,2013-01-11 00:55:00
8:55 PM,37.9,28.9,70,30.20,6.0,ESE,13.8,-,0.00,Rain,Light Rain,120,2013-01-11 01:55:00
9:55 PM,37.0,32.0,82,30.12,7.0,East,16.1,-,0.04,Rain,Light Rain,90,2013-01-11 02:55:00
10:20 PM,37.4,32.0,81,30.08,8.0,East,18.4,25.3,0.01,Rain,Light Rain,100,2013-01-11 03:20:00
10:55 PM,37.9,32.0,79,30.06,9.0,ESE,18.4,-,0.02,Rain,Light Rain,110,2013-01-11 03:55:00
11:55 PM,37.0,33.1,86,30.03,4.0,ESE,17.3,-,0.07,Rain,Light Rain,120,2013-01-11 04:55:00